Погода в Мултане

Пакистан     30°11′03″N   71°30′05″E
темп.,
°C
ветер,
м/с
пор.,
м/с
влажн.,
%
обл.,
%
осадки,
мм/ч
давл.,
гПа
погр.,
м
8 марта, пн
пн823:00+22с45310 0.0 100983
02:00+20с46350 0.0 1010125
05:00+18ссв45420 0.0 101098
08:00+20с57420 0.0 1014257
11:00+28с56260 0.0 1014826
14:00+33с43180 0.0 10111820
17:00+32ссз54160 0.0 10091334
20:00+24ссз46280 0.0 101291
9 марта, вт
вт923:00+24с46260 0.0 1013102
02:00+21ссв49350 0.0 1012160
05:00+19ссв48420 0.0 1013153
08:00+21с23360 0.0 1015145
11:00+31с44180 0.0 1014905
14:00+35ссз23120 0.0 10112709
17:00+34сз43120 0.0 10092120
20:00+26ссв45220 0.0 101166
10 марта, ср
ср1023:00+23всв45270 0.0 101174
02:00+20всв34340 0.0 101154
05:00+18св23370 0.1 101147
08:00+22с34290 0.0 1013163
11:00+31ссв23140 0.0 1013760
14:00+36ю1290 0.0 10093082
17:00+35з2390 0.0 10073016
20:00+26ссв34190 0.0 100848
11 марта, чт
чт1123:00+24всв57200 0.0 1010116
02:00+21в35270 0.0 100994
05:00+18с34330 0.0 100846
08:00+22с23280 0.0 1010144
11:00+31ссз32150 0.0 1011718
14:00+36зюз2490 0.0 10072411
17:00+35юз2480 0.0 10052157
20:00+25всв11170 0.0 100725
12 марта, пт
пт1223:00+22ссв714360 0.0 1009388
02:00+18с48530 0.0 1009199
05:00+18с595630 0.0 1009204
08:00+21ссз8124561 0.2 1012586
11:00+25ссв7113981 2.7 1013926
14:00+32св551930 0.3 10101845
17:00+32ссз441815 0.3 10092282
20:00+24с35300 0.0 101175